• In Germany
  • List of Countries
  • For 7 days
  • Water Temperature
  • Satellite Maps
  • Weather Map
  • Weather Widgets
  • user-avatar
    Login

    Hourly Weather Barra

    Today, 28 June, Wednesday

    Time Temperature Precipitation Wind Pressure Humidity
    00:00 +20°C° 0.3 mm 4 mps 752 mmHg 96%
    01:00 +20°C° 0.3 mm 4 mps 752 mmHg 96%
    02:00 +20°C° 0.3 mm 4 mps 752 mmHg 97%
    03:00 +20°C° 0.3 mm 4 mps 752 mmHg 97%
    04:00 +20°C° 0 mm 3 mps 751 mmHg 97%
    05:00 +19°C° 0.2 mm 3 mps 752 mmHg 97%
    06:00 +19°C° 0.2 mm 3 mps 752 mmHg 97%
    07:00 +19°C° 0.2 mm 3 mps 752 mmHg 97%
    08:00 +21°C° 0.2 mm 3 mps 752 mmHg 93%
    09:00 +22°C° 0.2 mm 3 mps 752 mmHg 88%
    10:00 +24°C° 0 mm 3 mps 753 mmHg 83%
    11:00 +25°C° 0.2 mm 3 mps 752 mmHg 82%
    12:00 +25°C° 0.2 mm 3 mps 752 mmHg 81%
    13:00 +25°C° 0.2 mm 3 mps 752 mmHg 80%
    14:00 +25°C° 0.2 mm 3 mps 752 mmHg 81%
    15:00 +25°C° 0.2 mm 3 mps 751 mmHg 83%
    16:00 +24°C° 0 mm 3 mps 751 mmHg 84%
    17:00 +22°C° 0.1 mm 3 mps 751 mmHg 88%
    18:00 +21°C° 0.1 mm 3 mps 752 mmHg 92%
    19:00 +20°C° 0.1 mm 3 mps 752 mmHg 96%
    20:00 +20°C° 0.1 mm 3 mps 752 mmHg 96%
    21:00 +20°C° 0.1 mm 3 mps 752 mmHg 96%
    22:00 +20°C° 0.1 mm 3 mps 752 mmHg 96%
    23:00 +20°C° 0.2 mm 3 mps 752 mmHg 96%

    Tomorrow, 29 June, Thursday

    Time Temperature Precipitation Wind Pressure Humidity
    00:00 +21°C° 0.2 mm 3 mps 752 mmHg 96%
    01:00 +21°C° 0.2 mm 3 mps 752 mmHg 96%
    02:00 +21°C° 0.4 mm 3 mps 752 mmHg 96%
    03:00 +21°C° 0.4 mm 3 mps 752 mmHg 96%
    04:00 +21°C° 0.4 mm 3 mps 751 mmHg 96%
    05:00 +21°C° 0.5 mm 3 mps 752 mmHg 97%
    06:00 +21°C° 0.5 mm 3 mps 752 mmHg 97%
    07:00 +21°C° 0.5 mm 3 mps 752 mmHg 97%
    08:00 +21°C° 0.3 mm 3 mps 752 mmHg 97%
    09:00 +21°C° 0.3 mm 4 mps 752 mmHg 96%
    10:00 +21°C° 0.3 mm 4 mps 753 mmHg 96%
    11:00 +22°C° 0.2 mm 4 mps 752 mmHg 94%
    12:00 +22°C° 0.2 mm 4 mps 752 mmHg 92%
    13:00 +23°C° 0.2 mm 4 mps 752 mmHg 89%
    14:00 +24°C° 0.1 mm 3 mps 751 mmHg 90%
    15:00 +22°C° 0.1 mm 3 mps 751 mmHg 91%
    16:00 +22°C° 0.1 mm 3 mps 751 mmHg 92%
    17:00 +22°C° 0.1 mm 3 mps 751 mmHg 93%
    18:00 +21°C° 0.1 mm 3 mps 751 mmHg 95%
    19:00 +21°C° 0.1 mm 3 mps 752 mmHg 96%
    20:00 +21°C° 0.1 mm 3 mps 752 mmHg 96%
    21:00 +20°C° 0.1 mm 2 mps 752 mmHg 96%
    22:00 +20°C° 0.1 mm 2 mps 752 mmHg 97%
    23:00 +20°C° 0.2 mm 2 mps 752 mmHg 97%

    Day after tomorrow, 30 June, Friday

    Time Temperature Precipitation Wind Pressure Humidity
    00:00 +20°C° 0.2 mm 2 mps 752 mmHg 97%
    01:00 +20°C° 0.2 mm 2 mps 752 mmHg 97%
    02:00 +20°C° 0.1 mm 3 mps 751 mmHg 97%
    03:00 +20°C° 0.1 mm 3 mps 751 mmHg 97%
    04:00 +19°C° 0.1 mm 3 mps 751 mmHg 97%
    05:00 +19°C° 0.1 mm 3 mps 751 mmHg 97%
    06:00 +19°C° 0.1 mm 3 mps 751 mmHg 97%
    07:00 +19°C° 0.1 mm 3 mps 751 mmHg 97%
    08:00 +20°C° 0.1 mm 4 mps 752 mmHg 93%
    09:00 +22°C° 0.1 mm 4 mps 752 mmHg 89%
    10:00 +23°C° 0.1 mm 4 mps 753 mmHg 85%
    11:00 +23°C° 0.1 mm 4 mps 752 mmHg 82%
    12:00 +25°C° 0.1 mm 4 mps 752 mmHg 79%
    13:00 +25°C° 0.1 mm 5 mps 751 mmHg 75%
    14:00 +25°C° 0 mm 4 mps 751 mmHg 78%
    15:00 +23°C° 0 mm 4 mps 751 mmHg 80%
    16:00 +23°C° 0 mm 4 mps 750 mmHg 83%
    17:00 +22°C° 0.1 mm 4 mps 751 mmHg 86%
    18:00 +21°C° 0.1 mm 4 mps 751 mmHg 88%
    19:00 +21°C° 0.1 mm 4 mps 752 mmHg 91%
    20:00 +21°C° 0.1 mm 4 mps 752 mmHg 92%
    21:00 +21°C° 0.1 mm 4 mps 753 mmHg 92%
    22:00 +21°C° 0.1 mm 4 mps 753 mmHg 93%
    23:00 +21°C° 0.2 mm 4 mps 753 mmHg 94%

    1 July, Saturday

    Time Temperature Precipitation Wind Pressure Humidity
    00:00 +21°C° 0.2 mm 5 mps 752 mmHg 94%
    01:00 +21°C° 0.2 mm 5 mps 752 mmHg 95%
    02:00 +21°C° 0.3 mm 5 mps 752 mmHg 95%
    03:00 +20°C° 0.3 mm 5 mps 752 mmHg 95%
    04:00 +20°C° 0.3 mm 5 mps 751 mmHg 95%
    05:00 +20°C° 0.2 mm 5 mps 752 mmHg 95%
    06:00 +20°C° 0.2 mm 5 mps 752 mmHg 95%
    07:00 +20°C° 0.2 mm 5 mps 752 mmHg 95%
    08:00 +20°C° 0.2 mm 6 mps 753 mmHg 94%
    09:00 +20°C° 0.2 mm 6 mps 753 mmHg 93%
    10:00 +21°C° 0.2 mm 6 mps 754 mmHg 93%
    11:00 +21°C° 0.3 mm 6 mps 753 mmHg 92%
    12:00 +21°C° 0.3 mm 6 mps 753 mmHg 92%
    13:00 +21°C° 0.3 mm 6 mps 752 mmHg 92%
    14:00 +20°C° 0.2 mm 5 mps 752 mmHg 92%
    15:00 +20°C° 0.2 mm 5 mps 752 mmHg 92%
    16:00 +20°C° 0.2 mm 5 mps 752 mmHg 91%
    17:00 +20°C° 0.2 mm 5 mps 752 mmHg 92%
    18:00 +20°C° 0.2 mm 5 mps 752 mmHg 93%
    19:00 +20°C° 0.2 mm 5 mps 752 mmHg 94%
    20:00 +20°C° 0.4 mm 6 mps 753 mmHg 95%
    21:00 +20°C° 0.4 mm 6 mps 753 mmHg 95%
    22:00 +21°C° 0.4 mm 6 mps 753 mmHg 95%
    23:00 +21°C° 0.6 mm 6 mps 753 mmHg 96%

    2 July, Sunday

    Time Temperature Precipitation Wind Pressure Humidity
    00:00 +21°C° 0.6 mm 5 mps 753 mmHg 96%
    01:00 +21°C° 0.6 mm 5 mps 752 mmHg 96%
    02:00 +21°C° 0.5 mm 5 mps 752 mmHg 96%
    03:00 +21°C° 0.5 mm 5 mps 752 mmHg 97%
    04:00 +21°C° 0.5 mm 5 mps 751 mmHg 97%
    05:00 +21°C° 0.5 mm 4 mps 752 mmHg 97%
    06:00 +21°C° 0.5 mm 4 mps 752 mmHg 97%
    07:00 +21°C° 0.5 mm 4 mps 753 mmHg 97%
    08:00 +21°C° 0.3 mm 4 mps 753 mmHg 96%
    09:00 +22°C° 0.3 mm 4 mps 753 mmHg 95%
    10:00 +22°C° 0.3 mm 4 mps 753 mmHg 93%
    11:00 +23°C° 0.2 mm 4 mps 753 mmHg 91%
    12:00 +23°C° 0.2 mm 4 mps 752 mmHg 88%
    13:00 +25°C° 0.2 mm 4 mps 752 mmHg 86%
    14:00 +25°C° 0.1 mm 4 mps 752 mmHg 86%
    15:00 +23°C° 0.1 mm 4 mps 751 mmHg 86%
    16:00 +24°C° 0.1 mm 3 mps 751 mmHg 86%
    17:00 +22°C° 0.1 mm 3 mps 752 mmHg 90%
    18:00 +22°C° 0.1 mm 3 mps 752 mmHg 93%
    19:00 +21°C° 0.1 mm 3 mps 752 mmHg 97%
    20:00 +21°C° 0.1 mm 3 mps 753 mmHg 97%
    21:00 +21°C° 0.1 mm 3 mps 753 mmHg 96%
    22:00 +21°C° 0.1 mm 3 mps 753 mmHg 96%
    23:00 +21°C° 0.1 mm 2 mps 753 mmHg 96%

    3 July, Monday

    Time Temperature Precipitation Wind Pressure Humidity
    00:00 +21°C° 0.1 mm 2 mps 752 mmHg 97%
    01:00 +21°C° 0.1 mm 2 mps 752 mmHg 97%
    02:00 +21°C° 0.2 mm 2 mps 752 mmHg 97%
    03:00 +21°C° 0.2 mm 2 mps 752 mmHg 96%
    04:00 +21°C° 0.2 mm 2 mps 751 mmHg 96%
    05:00 +21°C° 0.2 mm 2 mps 752 mmHg 97%
    06:00 +20°C° 0.2 mm 2 mps 752 mmHg 97%
    07:00 +20°C° 0.2 mm 2 mps 752 mmHg 97%
    08:00 +21°C° 0.2 mm 2 mps 753 mmHg 95%
    09:00 +23°C° 0.2 mm 2 mps 753 mmHg 93%
    10:00 +24°C° 0.2 mm 2 mps 753 mmHg 91%
    11:00 +24°C° 0.3 mm 2 mps 752 mmHg 90%
    12:00 +24°C° 0.3 mm 3 mps 752 mmHg 88%
    13:00 +24°C° 0.3 mm 3 mps 751 mmHg 87%
    14:00 +24°C° 0.3 mm 3 mps 751 mmHg 88%
    15:00 +24°C° 0.3 mm 3 mps 751 mmHg 90%
    16:00 +24°C° 0.3 mm 3 mps 751 mmHg 91%
    17:00 +22°C° 0.3 mm 3 mps 751 mmHg 93%
    18:00 +22°C° 0.3 mm 3 mps 752 mmHg 95%
    19:00 +21°C° 0.3 mm 3 mps 752 mmHg 97%
    20:00 +21°C° 0.2 mm 3 mps 753 mmHg 97%
    21:00 +21°C° 0.2 mm 3 mps 753 mmHg 97%
    22:00 +21°C° 0.2 mm 2 mps 753 mmHg 97%
    23:00 +21°C° 0.3 mm 2 mps 753 mmHg 97%
    Show more